Delhi Cantonment, India

3:57 PM IST on December 11, 2016 (GMT +0530)
Indira Gandhi International

Weather History for VIDP - March, 2014

Change the Weather History Date:

Monday, March 10, 2014

  Actual Average Record
Temperature  
Mean Temperature 68 °F -  
Max Temperature 73 °F 87 °F 90 °F (2016)
Min Temperature 62 °F 63 °F 48 °F (2015)
Cooling Degree Days 2    
Growing Degree Days 18 (Base 50)    
Moisture  
Dew Point 53 °F    
Average Humidity 60    
Maximum Humidity 83    
Minimum Humidity 46    
Precipitation  
Precipitation 0.00 in - - ()
Sea Level Pressure  
Sea Level Pressure 29.95 in    
Wind  
Wind Speed 7 mph ()    
Max Wind Speed 21 mph    
Max Gust Speed -    
Visibility 2.6 miles    
Events Rain , Thunderstorm    
Averages and records for this station are not official NWS values.
T = Trace of Precipitation, MM = Missing Value Source: Averaged Metar Reports

Daily Weather History Graph

Daily Weather History Graph

Search for Another Location

Airport or City:

Trip Planner

Search our weather history database for the weather conditions in past years. The results will help you decide how hot, cold, wet, or windy it might be!

Date:

Astronomy

Mar. 10, 2014 Rise Set
Actual Time 6:37 AM IST 6:26 PM IST
Civil Twilight 6:13 AM IST 6:50 PM IST
Nautical Twilight 5:46 AM IST 7:17 PM IST
Astronomical Twilight 5:19 AM IST 7:45 PM IST
Moon 1:06 PM IST (3/10) 2:08 AM IST (3/10)
Length of Visible Light 12h 36m
Length of Day
11h 49m
Waxing Gibbous, 66% of the Moon is Illuminated
Mar 10
Waxing Gibbous
Mar 16
Full
Mar 24
Last Quarter
Mar 31
New
Apr 7
First Quarter

Hourly Weather History & Observations

Time (IST) Temp. Dew Point Humidity Pressure Visibility Wind Dir Wind Speed Gust Speed Precip Events Conditions
12:00 AM 69.8 °F 48.2 °F 46% 29.92 in 3.1 mi ESE 12.7 mph - N/A   Haze
12:30 AM 69.8 °F 48.2 °F 46% 29.92 in 3.1 mi SE 3.5 mph - N/A   Haze
1:00 AM 68.0 °F 48.2 °F 49% 29.92 in 3.1 mi SSE 3.5 mph - N/A   Haze
1:30 AM 68.0 °F 48.2 °F 49% 29.92 in 3.1 mi South 3.5 mph - N/A   Haze
2:00 AM 66.2 °F 48.2 °F 52% 29.92 in 2.8 mi SSE 3.5 mph - N/A   Haze
2:30 AM 64.4 °F 51.8 °F 64% 29.89 in 2.8 mi Calm Calm - N/A   Haze
3:00 AM 64.4 °F 53.6 °F 68% 29.89 in 2.8 mi Calm Calm - N/A   Haze
3:30 AM 62.6 °F 53.6 °F 72% 29.92 in 2.8 mi Calm Calm - N/A   Haze
4:00 AM 62.6 °F 53.6 °F 72% 29.92 in 2.8 mi Calm Calm - N/A   Haze
4:30 AM 64.4 °F 50.0 °F 59% 29.89 in 2.8 mi SE 5.8 mph - N/A Rain Light Rain
5:30 AM 64.4 °F 53.6 °F 68% 29.89 in 2.8 mi SSW 3.5 mph - N/A Thunderstorm Thunderstorm
6:00 AM 66.2 °F 50.0 °F 56% 29.92 in 2.8 mi NNE 5.8 mph - N/A Thunderstorm Thunderstorm
6:30 AM 66.2 °F 51.8 °F 60% 29.95 in 2.8 mi NW 4.6 mph - N/A Thunderstorm Thunderstorm
7:00 AM 62.6 °F 51.8 °F 68% 29.98 in 2.8 mi East 8.1 mph - N/A   Haze
7:30 AM 64.4 °F 51.8 °F 64% 29.98 in 2.8 mi East 8.1 mph - N/A   Haze
8:00 AM 68.0 °F 50.0 °F 52% 30.01 in 2.5 mi ENE 5.8 mph - N/A   Haze
8:30 AM 66.2 °F 53.6 °F 64% 30.04 in 2.5 mi NE 10.4 mph - N/A   Haze
9:00 AM 66.2 °F 53.6 °F 64% 30.04 in 2.5 mi ENE 12.7 mph - N/A   Haze
9:30 AM 66.2 °F 51.8 °F 60% 30.06 in 2.5 mi NW 10.4 mph - N/A   Haze
10:30 AM 69.8 °F 53.6 °F 56% 30.04 in 2.5 mi East 12.7 mph - N/A   Haze
11:00 AM 69.8 °F 53.6 °F 56% 30.04 in 2.5 mi East 11.5 mph - N/A   Haze
11:30 AM 69.8 °F 53.6 °F 56% 30.04 in 2.5 mi East 13.8 mph - N/A   Haze
12:00 PM 69.8 °F 51.8 °F 53% 30.01 in 2.5 mi East 15.0 mph - N/A   Haze
12:30 PM 69.8 °F 53.6 °F 56% 30.01 in 2.5 mi East 15.0 mph - N/A   Haze
1:00 PM 71.6 °F 53.6 °F 53% 30.01 in 2.5 mi East 12.7 mph - N/A   Haze
1:30 PM 71.6 °F 53.6 °F 53% 29.98 in 2.5 mi East 12.7 mph - N/A   Haze
2:30 PM 71.6 °F 53.6 °F 53% 29.95 in 2.2 mi East 10.4 mph - N/A Thunderstorm Thunderstorm
3:00 PM 69.8 °F 55.4 °F 60% 29.95 in 2.2 mi East 11.5 mph - N/A Thunderstorm Thunderstorm
3:30 PM 73.4 °F 55.4 °F 53% 29.92 in 2.2 mi ENE 15.0 mph - N/A   Haze
4:00 PM 73.4 °F 55.4 °F 53% 29.89 in 2.2 mi East 16.1 mph - N/A   Haze
4:30 PM 73.4 °F 55.4 °F 53% 29.89 in 2.8 mi East 11.5 mph - N/A   Haze
5:30 PM 73.4 °F 55.4 °F 53% 29.89 in 2.8 mi East 8.1 mph - N/A   Haze
6:00 PM 73.4 °F 55.4 °F 53% 29.89 in 2.5 mi East 6.9 mph - N/A   Haze
6:30 PM 69.8 °F 55.4 °F 60% 29.89 in 2.2 mi East 8.1 mph - N/A   Haze
7:00 PM 69.8 °F 55.4 °F 60% 29.89 in 2.2 mi ENE 6.9 mph - N/A   Haze
7:30 PM 69.8 °F 55.4 °F 60% 29.92 in 2.2 mi NE 4.6 mph - N/A   Haze
8:00 PM 69.8 °F 55.4 °F 60% 29.92 in 2.2 mi ESE 4.6 mph - N/A Rain , Thunderstorm Light Thunderstorms and Rain
8:30 PM 66.2 °F 57.2 °F 73% 29.95 in 2.2 mi South 8.1 mph - N/A Rain , Thunderstorm Light Thunderstorms and Rain
9:00 PM 64.4 °F 57.2 °F 77% 29.95 in 2.2 mi South 20.7 mph - N/A Rain , Thunderstorm Light Thunderstorms and Rain
9:30 PM 64.4 °F 59.0 °F 83% 29.95 in 2.8 mi SE 15.0 mph - N/A Rain , Thunderstorm Light Thunderstorms and Rain
10:00 PM 64.4 °F 57.2 °F 77% 29.92 in 2.8 mi ESE 13.8 mph - N/A   Smoke
11:00 PM 64.4 °F 53.6 °F 68% 29.92 in 3.1 mi ESE 11.5 mph - N/A   Haze
11:30 PM 64.4 °F 51.8 °F 64% 29.92 in 3.1 mi ESE 15.0 mph - N/A   Haze